| time (UTC) | temp F | wind direction | speed MPH | gust MPH | rain 1hr in | rain 24hr in | rain mn in | humidity % | barometer mb |
| 20260509203000 | 53 | 314 | 0.0 | 1.0 | 0.08 | 0.32 | 0.32 | 60 | 1009.7 |
| 20260509201501 | 52 | 314 | 1.0 | 3.0 | 0.09 | 0.31 | 0.31 | 63 | 1010.1 |
| 20260509200001 | 52 | 314 | 0.0 | 2.0 | 0.08 | 0.28 | 0.28 | 60 | 1009.9 |
| 20260509191500 | 53 | 316 | 3.0 | 6.0 | 0.11 | 0.22 | 0.22 | 65 | 1011.0 |
| 20260509190001 | 53 | 275 | 2.0 | 7.0 | 0.10 | 0.20 | 0.20 | 68 | 1010.9 |
| 20260509184459 | 53 | 301 | 3.0 | 11.0 | 0.10 | 0.17 | 0.17 | 69 | 1011.1 |
| 20260509182959 | 53 | 330 | 2.0 | 7.0 | 0.09 | 0.14 | 0.14 | 69 | 1011.3 |
| 20260509181459 | 54 | 305 | 1.0 | 3.0 | 0.08 | 0.11 | 0.11 | 73 | 1011.3 |
| 20260509180000 | 54 | 285 | 2.0 | 5.0 | 0.08 | 0.09 | 0.09 | 77 | 1011.0 |
| 20260509174459 | 54 | 312 | 0.0 | 2.0 | 0.06 | 0.07 | 0.07 | 79 | 1011.0 |
| 20260509171458 | 55 | 336 | 1.0 | 4.0 | 0.03 | 0.03 | 0.03 | 84 | 1011.3 |
| 20260509170001 | 56 | 232 | 1.0 | 3.0 | 0.01 | 0.01 | 0.01 | 85 | 1011.5 |
| 20260509164459 | 56 | 283 | 2.0 | 6.0 | 0.01 | 0.01 | 0.01 | 85 | 1011.2 |
| 20260509162959 | 57 | 311 | 3.0 | 10.0 | 0.01 | 0.01 | 0.01 | 83 | 1011.5 |
| 20260509160001 | 56 | 303 | 2.0 | 4.0 | 0.00 | 0.00 | 0.00 | 85 | 1011.6 |
| 20260509154459 | 56 | 330 | 1.0 | 4.0 | 0.00 | 0.00 | 0.00 | 84 | 1011.6 |
| 20260509153000 | 56 | 147 | 1.0 | 3.0 | 0.00 | 0.00 | 0.00 | 85 | 1011.6 |
| 20260509151459 | 56 | 114 | 1.0 | 4.0 | 0.00 | 0.00 | 0.00 | 84 | 1011.6 |
| 20260509150001 | 55 | 224 | 0.0 | 1.0 | 0.00 | 0.00 | 0.00 | 85 | 1011.6 |
| 20260509142959 | 54 | 192 | 1.0 | 4.0 | 0.00 | 0.00 | 0.00 | 84 | 1011.6 |
| 20260509141459 | 54 | 129 | 2.0 | 3.0 | 0.00 | 0.00 | 0.00 | 84 | 1011.6 |
| 20260509140001 | 54 | 133 | 2.0 | 5.0 | 0.00 | 0.00 | 0.00 | 83 | 1011.5 |
| 20260509134500 | 54 | 71 | 2.0 | 4.0 | 0.00 | 0.00 | 0.00 | 82 | 1011.4 |
| 20260509132959 | 54 | 131 | 1.0 | 3.0 | 0.00 | 0.00 | 0.00 | 82 | 1011.3 |
| 20260509131458 | 53 | 127 | 2.0 | 4.0 | 0.00 | 0.00 | 0.00 | 82 | 1011.4 |
| 20260509130000 | 53 | 207 | 2.0 | 4.0 | 0.00 | 0.00 | 0.00 | 82 | 1011.6 |
| 20260509124459 | 53 | 123 | 3.0 | 5.0 | 0.00 | 0.00 | 0.00 | 81 | 1011.6 |
| 20260509122958 | 52 | 124 | 4.0 | 6.0 | 0.00 | 0.00 | 0.00 | 80 | 1011.7 |
| 20260509121458 | 52 | 119 | 2.0 | 4.0 | 0.00 | 0.00 | 0.00 | 81 | 1011.5 |
| 20260509115958 | 52 | 119 | 2.0 | 4.0 | 0.00 | 0.00 | 0.00 | 80 | 1011.6 |
| 20260509114458 | 52 | 120 | 2.0 | 4.0 | 0.00 | 0.00 | 0.00 | 80 | 1011.5 |
| 20260509112958 | 52 | 112 | 2.0 | 6.0 | 0.00 | 0.00 | 0.00 | 79 | 1011.6 |
| 20260509111458 | 52 | 110 | 3.0 | 6.0 | 0.00 | 0.00 | 0.00 | 79 | 1011.4 |
| 20260509105957 | 52 | 117 | 3.0 | 5.0 | 0.00 | 0.00 | 0.00 | 80 | 1011.6 |
| 20260509102959 | 52 | 328 | 1.0 | 3.0 | 0.00 | 0.00 | 0.00 | 79 | 1011.2 |
| 20260509101458 | 52 | 323 | 0.0 | 1.0 | 0.00 | 0.00 | 0.00 | 77 | 1011.3 |
| 20260509092957 | 52 | 11 | 1.0 | 2.0 | 0.00 | 0.00 | 0.00 | 74 | 1011.2 |
| 20260509090000 | 52 | 11 | 0.0 | 1.0 | 0.00 | 0.00 | 0.00 | 73 | 1011.3 |
| 20260509084458 | 52 | 11 | 1.0 | 2.0 | 0.00 | 0.00 | 0.00 | 74 | 1011.5 |
| 20260509081458 | 52 | 61 | 1.0 | 2.0 | 0.00 | 0.00 | 0.00 | 73 | 1011.6 |
| 20260509075958 | 52 | 61 | 1.0 | 2.0 | 0.00 | 0.00 | 0.00 | 73 | 1011.6 |
| 20260509074458 | 51 | 61 | 0.0 | 0.0 | 0.00 | 0.00 | 0.00 | 74 | 1011.8 |
| 20260509072957 | 52 | 61 | 0.0 | 2.0 | 0.00 | 0.00 | 0.00 | 73 | 1011.5 |
| 20260509065958 | 51 | 305 | 0.0 | 2.0 | 0.00 | 0.01 | 0.00 | 77 | 1011.6 |
| 20260509064457 | 51 | 305 | 0.0 | 0.0 | 0.00 | 0.01 | 0.00 | 78 | 1011.7 |
| 20260509062958 | 51 | 305 | 0.0 | 2.0 | 0.00 | 0.01 | 0.00 | 77 | 1011.8 |
| 20260509061457 | 52 | 305 | 0.0 | 3.0 | 0.00 | 0.01 | 0.00 | 75 | 1012.1 |
| 20260509060000 | 54 | 25 | 0.0 | 1.0 | 0.00 | 0.01 | 0.00 | 73 | 1011.9 |
| 20260509054457 | 54 | 25 | 1.0 | 2.0 | 0.00 | 0.01 | 0.00 | 68 | 1011.9 |
| 20260509052958 | 54 | 25 | 0.0 | 2.0 | 0.00 | 0.01 | 0.00 | 66 | 1011.9 |
| 20260509050001 | 53 | 25 | 0.0 | 0.0 | 0.00 | 0.01 | 0.00 | 70 | 1012.7 |
| 20260509044500 | 53 | 25 | 0.0 | 2.0 | 0.00 | 0.01 | 0.00 | 69 | 1012.7 |
| 20260509041500 | 54 | 25 | 0.0 | 1.0 | 0.00 | 0.01 | 0.00 | 69 | 1012.6 |
| 20260509040005 | 53 | 25 | 0.0 | 2.0 | 0.00 | 0.01 | 0.00 | 70 | 1012.6 |
| 20260509034502 | 53 | 25 | 0.0 | 2.0 | 0.00 | 0.01 | 0.01 | 71 | 1012.6 |
| 20260509033002 | 53 | 25 | 0.0 | 0.0 | 0.00 | 0.01 | 0.01 | 69 | 1012.6 |
| 20260509031501 | 53 | 25 | 0.0 | 0.0 | 0.00 | 0.01 | 0.01 | 71 | 1012.6 |
| 20260509030002 | 53 | 25 | 0.0 | 0.0 | 0.00 | 0.01 | 0.01 | 71 | 1012.6 |
| 20260509024501 | 52 | 25 | 0.0 | 0.0 | 0.00 | 0.01 | 0.01 | 74 | 1012.6 |
| 20260509023001 | 53 | 25 | 0.0 | 0.0 | 0.00 | 0.01 | 0.01 | 74 | 1012.6 |
| 20260509021500 | 54 | 25 | 0.0 | 0.0 | 0.00 | 0.01 | 0.01 | 71 | 1012.6 |
| 20260509015959 | 54 | 25 | 0.0 | 0.0 | 0.00 | 0.01 | 0.01 | 69 | 1012.4 |
| 20260509014500 | 54 | 25 | 0.0 | 0.0 | 0.00 | 0.01 | 0.01 | 69 | 1012.2 |
| 20260509011459 | 54 | 25 | 0.0 | 0.0 | 0.00 | 0.01 | 0.01 | 68 | 1011.9 |
| 20260509010003 | 55 | 25 | 0.0 | 0.0 | 0.00 | 0.01 | 0.01 | 67 | 1011.6 |
| 20260509004501 | 55 | 25 | 0.0 | 0.0 | 0.00 | 0.01 | 0.01 | 66 | 1011.2 |
| 20260509003001 | 55 | 25 | 0.0 | 0.0 | 0.00 | 0.01 | 0.01 | 68 | 1011.1 |
| 20260509001501 | 55 | 25 | 0.0 | 2.0 | 0.00 | 0.01 | 0.01 | 65 | 1010.9 |
| 20260509000001 | 56 | 25 | 1.0 | 3.0 | 0.00 | 0.01 | 0.01 | 63 | 1010.7 |
| 20260508234500 | 56 | 281 | 1.0 | 2.0 | 0.00 | 0.01 | 0.01 | 64 | 1010.6 |
| 20260508233001 | 57 | 270 | 0.0 | 4.0 | 0.00 | 0.01 | 0.01 | 60 | 1010.6 |
| 20260508230002 | 57 | 296 | 1.0 | 3.0 | 0.00 | 0.01 | 0.01 | 58 | 1010.7 |
| 20260508224502 | 58 | 308 | 2.0 | 6.0 | 0.00 | 0.01 | 0.01 | 56 | 1010.7 |
| 20260508221502 | 58 | 283 | 4.0 | 9.0 | 0.00 | 0.01 | 0.01 | 53 | 1010.6 |
| 20260508214500 | 58 | 328 | 3.0 | 10.0 | 0.00 | 0.01 | 0.01 | 54 | 1010.7 |
| 20260508213001 | 59 | 268 | 4.0 | 10.0 | 0.00 | 0.01 | 0.01 | 53 | 1010.8 |
| 20260508211459 | 60 | 297 | 4.0 | 9.0 | 0.00 | 0.01 | 0.01 | 52 | 1010.6 |
| 20260508210002 | 59 | 281 | 4.0 | 8.0 | 0.00 | 0.01 | 0.01 | 55 | 1010.7 |
| 20260508204500 | 59 | 308 | 5.0 | 9.0 | 0.00 | 0.01 | 0.01 | 54 | 1010.8 |